Location: Axtheid
(49.6213°N, 11.8205°E)
Time: 07:27:26
(UTC+00:00)

Okean 1-7 Rocket - Visible Passes

Search period start: 09 May 2021 00:00
Search period end: 19 May 2021 00:00
Orbit: 617 x 648 km, 82.5° (Epoch: 08 May)

Date Brightness Start Highest point End Pass type
(mag) Time Alt. Az. Time Alt. Az. Time Alt. Az.
11 May 6.6 02:07:28 10° ESE 02:09:21 12° E 02:11:15 10° NE visible
12 May 6.1 02:27:07 10° SE 02:30:39 23° E 02:34:12 10° NE visible
13 May 5.0 02:47:48 10° SSE 02:52:04 41° E 02:56:23 10° NNE visible
15 May 6.2 01:54:27 10° SE 01:57:34 19° E 02:00:43 10° NE visible
16 May 5.3 02:14:53 10° SSE 02:18:57 33° E 02:23:03 10° NNE visible
17 May 4.2 02:35:57 10° S 02:40:27 63° E 02:45:00 10° NNE visible
18 May 6.3 01:21:58 10° ESE 01:24:31 15° E 01:27:07 10° NE visible
